This is the latest recevied weather packets stored in our database for station/object K5FEP. If no packets are shown the sender has not sent any weather packets the latest 10 day(s).
| Time | Temp. | Humidity | Pressure | Rain* | Wind** | Luminosity | Snow |
|---|---|---|---|---|---|---|---|
| 1788190715 | 32.22° C | 52% | 1019.3 hPa | 0 mm | - | 815 W/m² | - |
| 1788190411 | 31.67° C | 52% | 1019.6 hPa | 0 mm | - | 804 W/m² | - |
| 1788190107 | 31.67° C | 53% | 1019.4 hPa | 0 mm | - | 791 W/m² | - |
| 1788189803 | 31.67° C | 56% | 1019.5 hPa | 0 mm | - | 778 W/m² | - |
| 1788189511 | 31.11° C | 56% | 1019.6 hPa | 0 mm | - | 770 W/m² | - |
| 1788189196 | 30.56° C | 58% | 1019.4 hPa | 0 mm | - | 756 W/m² | - |
| 1788188892 | 30.56° C | 59% | 1019.6 hPa | 0 mm | - | 743 W/m² | - |
| 1788188587 | 30.56° C | 60% | 1019.7 hPa | 0 mm | - | 730 W/m² | - |
| 1788188286 | 30.56° C | 60% | 1019.7 hPa | 0 mm | - | 713 W/m² | - |
| 1788187983 | 30.56° C | 61% | 1019.6 hPa | 0 mm | - | 699 W/m² | - |
| 1788187678 | 30° C | 64% | 1019.8 hPa | 0 mm | - | 685 W/m² | - |
| 1788187375 | 30° C | 63% | 1019.6 hPa | 0 mm | - | 669 W/m² | - |
| 1788187074 | 29.44° C | 65% | 1019.6 hPa | 0 mm | - | 658 W/m² | - |
| 1788186769 | 29.44° C | 64% | 1019.5 hPa | 0 mm | - | 638 W/m² | - |
| 1788186464 | 29.44° C | 64% | 1019.6 hPa | 0 mm | - | 622 W/m² | - |
| 1788186160 | 29.44° C | 65% | 1019.5 hPa | 0 mm | - | 608 W/m² | - |
| 1788185859 | 28.89° C | 67% | 1019.6 hPa | 0 mm | - | 590 W/m² | - |
| 1788185555 | 28.89° C | 68% | 1019.5 hPa | 0 mm | - | 573 W/m² | - |
| 1788185255 | 28.33° C | 69% | 1019.7 hPa | 0 mm | - | 555 W/m² | - |
| 1788184949 | 28.33° C | 70% | 1019.5 hPa | 0 mm | - | 536 W/m² | - |
| 1788184647 | 27.78° C | 71% | 1019.6 hPa | 0 mm | - | 517 W/m² | - |
| 1788184343 | 27.78° C | 72% | 1019.6 hPa | 0 mm | - | 498 W/m² | - |
| 1788184038 | 27.22° C | 73% | 1019.7 hPa | 0 mm | - | 477 W/m² | - |
| 1788183735 | 27.22° C | 73% | 1019.8 hPa | 0 mm | - | 460 W/m² | - |
| 1788183433 | 27.22° C | 73% | 1019.7 hPa | 0 mm | - | 437 W/m² | - |
* Rain latest hour (hover to see other rain measurements)
** Current wind speed in m/s (hover to see current wind gust speed)